[[{"header":{"parameterUnit":"m.s-1","parameterCategory":2,"la1":30.2991,"la2":30.254,"lo1":-89.0895,"lo2":-89.0444,"dy":0.0017,"dx":0.0017,"nx":28,"ny":28,"refTime":"2024-08-28T09:00:00:Z","depth":"0","parameterNumber":2,"parameterNumberName":"U-component_of_CURRENTS"},"data":[0,0,0,0,0,0,0,0,0,0,0,0,0,0,0,0,0,0,0,0,0,0,0,0,0,0,0,0,0,0,0,0,0,0,0,0,0,0,0,0,0,0,0,0,0,0,0,0,0,0,0,0,0,0,0,0,0,0,0.2519,0.2519,0,0.2525,0.2525,0.2525,0.2521,0.2521,0.2521,0.2521,0.25,0.2499,0.2498,0,0,0,0,0,0,0,0,0,0,0,0,0,0.2456,0.2457,0.2519,0.2519,0.252,0.2526,0.2525,0.2525,0.2521,0.2521,0.2521,0.2521,0.25,0.2499,0.2498,0,0,0,0,0,0,0,0,0,0,0,0,0,0.2471,0.2458,0.2518,0.2522,0.2522,0.2526,0.2525,0.2525,0.252,0.2521,0.2521,0.2522,0.25,0.2499,0.2498,0.2484,0,0,0.2494,0.2494,0,0,0,0,0,0,0,0,0.247,0.2473,0.2521,0.2521,0.2522,0.2527,0.2496,0.2511,0.252,0.2516,0.2521,0.2522,0.2509,0.2507,0.2501,0.2483,0.2482,0.2494,0.2494,0.2493,0.2493,0,0,0,0,0,0,0,0.2469,0.2472,0.2517,0.2521,0.2522,0.2508,0.251,0.2498,0.2506,0.2517,0.2517,0.2526,0.2509,0.2502,0.2501,0.2482,0.2494,0.2493,0.2493,0.2492,0.2512,0.2513,0,0,0,0,0,0,0.248,0.2472,0.2516,0.2517,0.2502,0.2509,0.2511,0.2521,0.2507,0.2507,0.2525,0.2526,0.2504,0.2502,0.25,0.2533,0.2493,0.2492,0.2491,0.2511,0.2512,0.2514,0,0,0,0,0,0,0.2479,0.2484,0.2516,0.2498,0.2502,0.2511,0.2521,0.2521,0.2524,0.2515,0.2513,0.253,0.2505,0.2502,0.2506,0.2531,0.2492,0.249,0.2509,0.2511,0.2513,0.2568,0,0,0,0,0,0,0.2477,0.2483,0.2488,0.2499,0.2503,0.2528,0.2521,0.2521,0.253,0.253,0.2518,0.2516,0.2505,0.2508,0.2505,0.2528,0.249,0.2508,0.251,0.2512,0.2564,0.2571,0.2577,0,0,0,0,0,0.2475,0.2483,0.2488,0.2494,0.2512,0.2529,0.253,0.2533,0.253,0.2535,0.2532,0.2517,0.2521,0.2507,0.2503,0.2528,0.2507,0.251,0.2512,0.2561,0.257,0.2577,0,0,0,0,0,0,0.2455,0.2484,0.249,0.2506,0.2522,0.2531,0.2537,0.2538,0.2537,0.2537,0.2524,0.2522,0.2538,0.2524,0.251,0.2542,0.2514,0.2517,0.2553,0.2561,0.2567,0.2575,0.2489,0,0,0,0,0,0.2455,0.247,0.2495,0.2507,0.252,0.2528,0.2534,0.2539,0.2544,0.2543,0.2537,0.2536,0.2545,0.2545,0.2544,0.2553,0.2562,0.2569,0.2576,0.2581,0.2587,0.2635,0.2646,0.2523,0.2523,0.2523,0,0,0.2449,0.2468,0.2476,0.2504,0.2516,0.2534,0.2532,0.2548,0.256,0.2541,0.255,0.2554,0.2552,0.2571,0.2577,0.2562,0.2621,0.2585,0.2589,0.2592,0.2639,0.2651,0.2662,0.2525,0.2524,0.2524,0,0,0.2451,0.2467,0.2484,0.2501,0.2529,0.2538,0.2548,0.2563,0.257,0.2582,0.2582,0.2604,0.2598,0.2615,0.262,0.2659,0.2654,0.2659,0.2695,0.2742,0.2752,0.2762,0.2789,0.28,0.2661,0.2661,0.2661,0,0.2442,0.2468,0.249,0.2512,0.2528,0.2544,0.2564,0.2574,0.2586,0.2607,0.2593,0.263,0.2623,0.267,0.2684,0.2675,0.2693,0.2665,0.2751,0.276,0.2769,0.2794,0.2806,0.2664,0.2663,0.2663,0.2663,0,0.246,0.2479,0.2493,0.2528,0.2547,0.2566,0.2593,0.2614,0.2625,0.2642,0.2689,0.2689,0.2718,0.2722,0.271,0.2776,0.2765,0.2755,0.2732,0.2785,0.2808,0.2819,0.2668,0.2667,0.2666,0.2665,0,0,0.2436,0.2494,0.2494,0.2515,0.2557,0.2572,0.2613,0.2659,0.2694,0.2713,0.2764,0.2785,0.28,0.2807,0.2807,0.284,0.2912,0.2823,0.2824,0.2851,0.3009,0.2974,0.2982,0.292,0.2923,0.2925,0.3,0,0.244,0.2482,0.2509,0.2541,0.2568,0.2605,0.2642,0.2687,0.2722,0.2774,0.281,0.2849,0.2828,0.2848,0.2885,0.2906,0.2945,0.2891,0.2953,0.2954,0.2918,0.2996,0.2899,0.2956,0.3011,0.3013,0.3014,0,0.2439,0.2473,0.2506,0.2564,0.258,0.2597,0.2669,0.2702,0.279,0.2825,0.2887,0.2916,0.298,0.2946,0.3027,0.2995,0.301,0.3019,0.3023,0.2978,0.2941,0.2912,0.2974,0.2955,0.3032,0.303,0.3029,0,0.2403,0.2462,0.2486,0.2503,0.2574,0.2598,0.2635,0.2717,0.2758,0.2858,0.2904,0.2988,0.3023,0.3073,0.3099,0.3073,0.318,0.3146,0.3131,0.3127,0.305,0.3036,0.31,0.3212,0.3212,0.3212,0.3211,0,0.2387,0.2403,0.2469,0.2477,0.2517,0.2575,0.262,0.2681,0.2773,0.283,0.2919,0.2977,0.3056,0.3125,0.3143,0.318,0.3223,0.3157,0.3157,0.3065,0.3052,0.3034,0.3005,0.3214,0.3214,0.3213,0.3213,0,0.2331,0.2375,0.2402,0.2473,0.2493,0.2514,0.2591,0.2633,0.2729,0.2808,0.2846,0.2983,0.3072,0.3146,0.3228,0.3223,0.319,0.3268,0.3146,0.3131,0.3071,0.3048,0.294,0.2847,0.3262,0.3262,0.3262,0,0.2304,0.2316,0.2372,0.2389,0.2412,0.2457,0.2492,0.2591,0.2636,0.2801,0.2834,0.297,0.3046,0.3171,0.3206,0.3262,0.3175,0.3191,0.312,0.3078,0.3053,0.2901,0.2819,0.304,0.3038,0.3036,0.3035,0,0.2262,0.2276,0.2304,0.2335,0.236,0.2388,0.2442,0.2471,0.2595,0.267,0.2778,0.2863,0.3011,0.3044,0.3138,0.3153,0.3051,0.3157,0.3155,0.2926,0.2722,0.2629,0.2971,0.302,0.3022,0.3023,0.3023,0.3024,0.2229,0.2235,0.2271,0.2286,0.2308,0.2312,0.2305,0.2373,0.2428,0.252,0.2655,0.2741,0.2903,0.3022,0.3019,0.3008,0.294,0.295,0.2939,0.2799,0.2662,0.2966,0.2987,0.2988,0.2989,0.299,0.2991,0,0.2212,0.2221,0.2228,0.2232,0.2208,0.2247,0.2267,0.2244,0.226,0.2391,0.2467,0.2625,0.2711,0.2825,0.2913,0.2839,0.2665,0.2776,0.2564,0.2504,0.2837,0.2785,0.2712,0.2712,0.2712,0.2712,0.2712,0.2712,0.2215,0.221,0.2198,0.2137,0.2125,0.2063,0.2052,0.2034,0.2091,0.2153,0.2239,0.2354,0.2618,0.282,0.2831,0.2756,0.2554,0.2415,0.2403,0.27,0.2715,0.273,0.2678,0.2584,0.2584,0.1954,0.195,0.1947]},{"header":{"parameterUnit":"m.s-1","parameterCategory":2,"la1":30.2991,"la2":30.254,"lo1":-89.0895,"lo2":-89.0444,"dy":0.0017,"dx":0.0017,"nx":28,"ny":28,"refTime":"2024-08-28T09:00:00:Z","depth":"0","parameterNumber":3,"parameterNumberName":"V-component_of_CURRENTS"},"data":[0,0,0,0,0,0,0,0,0,0,0,0,0,0,0,0,0,0,0,0,0,0,0,0,0,0,0,0,0,0,0,0,0,0,0,0,0,0,0,0,0,0,0,0,0,0,0,0,0,0,0,0,0,0,0,0,0,0,0.0117,0.0117,0,0.0066,0.0065,0.0065,0.0024,0.0024,0.0024,0.0024,-0.006,-0.0062,-0.0064,0,0,0,0,0,0,0,0,0,0,0,0,0,0.014,0.014,0.0117,0.0117,0.0116,0.0066,0.0065,0.0064,0.0024,0.0024,0.0024,0.0024,-0.006,-0.0062,-0.0065,0,0,0,0,0,0,0,0,0,0,0,0,0,0.0112,0.014,0.0117,0.0092,0.0089,0.0066,0.0065,0.0064,0.0024,0.0024,0.0024,0.0024,-0.0059,-0.0062,-0.0065,-0.0077,0,0,-0.0074,-0.0076,0,0,0,0,0,0,0,0,0.0113,0.0111,0.0096,0.0093,0.009,0.0053,0.0043,0.0016,0.0025,0.0047,0.0024,0.0023,-0.0024,-0.003,-0.0041,-0.0081,-0.0085,-0.0074,-0.0076,-0.0078,-0.0079,0,0,0,0,0,0,0,0.0115,0.0112,0.0095,0.0096,0.0092,0.0069,0.0065,0.0037,0.0012,0.0045,0.0042,0.004,-0.0026,-0.0038,-0.0043,-0.0086,-0.0074,-0.0077,-0.0079,-0.008,-0.0137,-0.0137,0,0,0,0,0,0,0.0128,0.0115,0.0097,0.0094,0.0104,0.0069,0.0065,0.0064,0.0013,0.0005,0.004,0.0038,-0.0033,-0.004,-0.0047,-0.0052,-0.0078,-0.0081,-0.0082,-0.0137,-0.0137,-0.0137,0,0,0,0,0,0,0.0129,0.0127,0.0099,0.0104,0.0099,0.007,0.0069,0.0063,0.0052,0.001,0.0001,0.0036,-0.0033,-0.0042,-0.0066,-0.0056,-0.0082,-0.0085,-0.0138,-0.0137,-0.0137,-0.0071,0,0,0,0,0,0,0.013,0.0128,0.013,0.0105,0.01,0.0092,0.0069,0.0062,0.0052,0.0049,0.0004,-0.0005,-0.0034,-0.0061,-0.0069,-0.0061,-0.0087,-0.0138,-0.0137,-0.0137,-0.0074,-0.0068,-0.0064,0,0,0,0,0,0.0131,0.0143,0.013,0.0128,0.0104,0.0093,0.0088,0.0064,0.0053,0.0052,0.0022,-0.0003,-0.0063,-0.0063,-0.0073,-0.0065,-0.0138,-0.0138,-0.0137,-0.0076,-0.0069,-0.0064,0,0,0,0,0,0,0.0156,0.0139,0.0125,0.0131,0.0115,0.0087,0.0087,0.0069,0.0045,0.0043,-0.0001,-0.0011,-0.0027,-0.0056,-0.0055,-0.008,-0.0104,-0.0105,-0.0055,-0.0049,-0.0044,-0.0023,-0.009,0,0,0,0,0,0.0163,0.0164,0.0143,0.0146,0.0142,0.0114,0.0106,0.0092,0.0069,0.0058,0.0026,-0.0006,-0.0032,-0.0047,-0.0075,-0.0089,-0.0113,-0.0091,-0.0086,-0.0081,-0.0071,-0.0099,-0.0096,-0.0134,-0.0134,-0.0134,0,0,0.0173,0.0164,0.0164,0.0151,0.0137,0.014,0.0108,0.0105,0.0106,0.0052,0.0044,0.0009,-0.0032,-0.0046,-0.0057,-0.0069,-0.0082,-0.008,-0.0076,-0.0068,-0.0098,-0.0094,-0.0091,-0.0134,-0.0134,-0.0134,0,0,0.0201,0.0188,0.02,0.0191,0.0178,0.0163,0.0165,0.0141,0.0129,0.0115,0.0079,0.0054,0.0011,-0.0013,-0.0032,-0.0017,-0.0055,-0.0029,0.0012,-0.0016,-0.0012,-0.001,-0.0031,-0.0031,-0.0026,-0.0026,-0.0026,0,0.0215,0.0224,0.0202,0.0213,0.0212,0.0178,0.0193,0.0178,0.0148,0.0145,0.0122,0.0069,0.0029,0.0017,0.0019,-0.0005,-0.0026,-0.0005,-0.0008,-0.0006,-0.0005,-0.0027,-0.0028,-0.0023,-0.0023,-0.0024,-0.0024,0,0.0251,0.0257,0.0266,0.0266,0.0263,0.027,0.0251,0.0247,0.0226,0.0207,0.0189,0.0136,0.0107,0.0087,0.0055,0.0048,0.0029,0.0003,-0.0019,0.0003,-0.0022,-0.0024,-0.0018,-0.002,-0.0021,-0.0021,0,0,0.0287,0.0291,0.0293,0.0305,0.0292,0.0299,0.0305,0.0302,0.0316,0.0275,0.0286,0.0228,0.0199,0.0176,0.0131,0.0103,0.0088,0.0061,0.0058,0.0048,0.0032,0.0021,0.0018,0.006,0.0059,0.0059,0.0012,0,0.032,0.0355,0.0344,0.0376,0.0393,0.037,0.0383,0.0377,0.0359,0.0362,0.031,0.03,0.0233,0.0225,0.0184,0.0116,0.0085,0.0104,0.0005,0.0003,-0.0004,0.0016,0.0038,-0.0002,0.001,0.001,0.0009,0,0.0361,0.0378,0.0418,0.044,0.0446,0.0462,0.0482,0.0489,0.0479,0.0467,0.0441,0.04,0.0359,0.0299,0.0193,0.0208,0.0127,0.0068,0.0065,0.0032,-0.0011,-0.0025,-0.0007,-0.0117,0.0006,0.0006,0.0006,0,0.0405,0.0431,0.0468,0.0473,0.0493,0.0512,0.0524,0.0525,0.055,0.0542,0.0561,0.0489,0.0475,0.0362,0.0232,0.0213,0.0119,0.0075,-0.001,-0.0012,-0.0023,-0.0025,-0.0116,0.0002,0.0002,0.0002,0.0002,0,0.0446,0.0475,0.0495,0.0517,0.0573,0.0568,0.0624,0.0625,0.0647,0.07,0.0625,0.0653,0.0491,0.0415,0.0274,0.0136,0.0147,0.0007,-0.0022,0.0,0.0001,-0.0121,-0.0216,0.0,0.0001,0.0001,0.0001,0,0.0486,0.0497,0.0545,0.0577,0.0597,0.0639,0.0697,0.0741,0.0751,0.0821,0.083,0.0781,0.0688,0.0518,0.0347,0.0209,-0.0019,0.001,0.0052,0.0029,-0.0161,-0.0253,-0.0405,-0.0502,-0.0091,-0.0091,-0.0092,0,0.051,0.054,0.0593,0.0636,0.0655,0.0716,0.0768,0.0793,0.0851,0.0911,0.096,0.0899,0.088,0.0624,0.0367,0.0127,-0.0026,-0.0016,-0.0056,-0.0158,-0.0283,-0.0349,-0.0426,-0.0047,-0.0047,-0.0047,-0.0047,0,0.0559,0.0576,0.0617,0.0699,0.0763,0.0835,0.0913,0.0976,0.103,0.1096,0.1175,0.1169,0.0942,0.0723,0.0391,0.0209,-0.0117,-0.0024,-0.0142,-0.0263,-0.0329,-0.044,-0.0028,-0.0047,-0.0047,-0.0047,-0.0047,-0.0047,0.06,0.0638,0.0696,0.0771,0.0849,0.095,0.1018,0.1118,0.123,0.1341,0.1332,0.1356,0.1051,0.0606,0.0344,-0.0088,-0.0139,-0.0211,-0.0316,-0.0372,-0.0466,-0.0049,-0.0095,-0.0095,-0.0095,-0.0095,-0.0095,0,0.0657,0.0699,0.0768,0.0862,0.0945,0.0978,0.1115,0.1194,0.1338,0.1452,0.1518,0.1408,0.1009,0.0595,0.0016,-0.0299,-0.045,-0.0476,-0.0563,-0.0633,-0.0257,-0.0252,-0.0316,-0.0316,-0.0316,-0.0316,-0.0316,-0.0316,0.0699,0.0766,0.0791,0.0926,0.0993,0.111,0.1189,0.1318,0.1426,0.1567,0.1612,0.1626,0.1394,0.0339,-0.0373,-0.0572,-0.0819,-0.0861,-0.1017,-0.0739,-0.0722,-0.0705,-0.0719,-0.0881,-0.0882,-0.1333,-0.1337,-0.1341]}],[{"header":{"parameterUnit":"m.s-1","parameterCategory":2,"la1":30.2991,"la2":30.254,"lo1":-89.0895,"lo2":-89.0444,"dy":0.0017,"dx":0.0017,"nx":28,"ny":28,"refTime":"2024-08-28T09:00:00:Z","depth":"2","parameterNumber":2,"parameterNumberName":"U-component_of_CURRENTS"},"data":[0,0,0,0,0,0,0,0,0,0,0,0,0,0,0,0,0,0,0,0,0,0,0,0,0,0,0,0,0,0,0,0,0,0,0,0,0,0,0,0,0,0,0,0,0,0,0,0,0,0,0,0,0,0,0,0,0,0,0.2504,0.2504,0,0.2499,0.2498,0.2498,0.2495,0.2496,0.2496,0.2496,0.2487,0.2487,0.2486,0,0,0,0,0,0,0,0,0,0,0,0,0,0.2441,0.2443,0.2503,0.2504,0.2504,0.2499,0.2498,0.2498,0.2495,0.2496,0.2496,0.2496,0.2487,0.2487,0.2486,0,0,0,0,0,0,0,0,0,0,0,0,0,0.2453,0.2443,0.2503,0.2505,0.2505,0.2499,0.2498,0.2498,0.2495,0.2496,0.2496,0.2497,0.2487,0.2487,0.2486,0.2472,0,0,0.2484,0.2483,0,0,0,0,0,0,0,0,0.2452,0.2455,0.2504,0.2504,0.2505,0.2501,0.2473,0.249,0.2495,0.2495,0.2496,0.2497,0.2493,0.2492,0.2485,0.2472,0.2471,0.2483,0.2483,0.2483,0.2482,0,0,0,0,0,0,0,0.2451,0.2454,0.2498,0.2504,0.2505,0.2482,0.2484,0.2476,0.2489,0.2495,0.2496,0.2501,0.2493,0.2486,0.2485,0.2471,0.2484,0.2483,0.2482,0.2482,0.2511,0.2512,0,0,0,0,0,0,0.2462,0.2454,0.2498,0.2498,0.2483,0.2483,0.2486,0.2499,0.2489,0.2489,0.25,0.2501,0.2487,0.2486,0.2485,0.2526,0.2483,0.2482,0.2481,0.251,0.2511,0.2513,0,0,0,0,0,0,0.2461,0.2466,0.2499,0.2478,0.2481,0.2485,0.2499,0.2499,0.2505,0.2494,0.2493,0.2509,0.2488,0.2486,0.2495,0.2523,0.2482,0.2481,0.2508,0.251,0.2512,0.2571,0,0,0,0,0,0,0.2459,0.2466,0.247,0.2479,0.2483,0.2509,0.2499,0.2499,0.2508,0.2508,0.25,0.2499,0.2488,0.2496,0.2494,0.2522,0.248,0.2507,0.2509,0.2511,0.2567,0.2575,0.2581,0,0,0,0,0,0.2457,0.2464,0.247,0.2475,0.2491,0.2509,0.2509,0.2509,0.2508,0.2515,0.2513,0.25,0.251,0.2496,0.2494,0.2522,0.2506,0.2508,0.2511,0.2564,0.2573,0.2581,0,0,0,0,0,0,0.2435,0.2465,0.2472,0.2486,0.2504,0.2511,0.2516,0.2517,0.2519,0.252,0.2508,0.2507,0.2528,0.2515,0.25,0.2538,0.2509,0.2511,0.255,0.2558,0.2565,0.2571,0.248,0,0,0,0,0,0.2434,0.2451,0.2475,0.2488,0.2502,0.2511,0.2515,0.2519,0.2526,0.2527,0.2524,0.2524,0.2535,0.2539,0.2538,0.2552,0.2557,0.2571,0.2578,0.2584,0.2588,0.2631,0.2642,0.2522,0.2522,0.2522,0,0,0.2429,0.2447,0.2456,0.2484,0.2499,0.2517,0.2515,0.2532,0.2545,0.2526,0.254,0.2544,0.2543,0.2565,0.2574,0.2559,0.2621,0.2587,0.2592,0.2593,0.2635,0.2647,0.2658,0.2524,0.2523,0.2523,0,0,0.2432,0.245,0.2468,0.2485,0.2513,0.2522,0.2533,0.255,0.2561,0.2574,0.2574,0.2598,0.2596,0.2612,0.2618,0.266,0.2654,0.2662,0.2701,0.2743,0.2754,0.2763,0.2785,0.2795,0.2666,0.2666,0.2667,0,0.2423,0.245,0.2474,0.2496,0.2512,0.253,0.2552,0.2563,0.2577,0.2601,0.2588,0.2626,0.2622,0.2669,0.2685,0.2677,0.2692,0.267,0.2753,0.2762,0.277,0.279,0.2801,0.267,0.2669,0.2669,0.2669,0,0.2443,0.2461,0.2477,0.2513,0.2533,0.2554,0.2583,0.2606,0.2621,0.2638,0.2688,0.2689,0.2718,0.2725,0.2714,0.2779,0.2767,0.2757,0.2733,0.2786,0.2804,0.2814,0.2674,0.2673,0.2672,0.2671,0,0,0.2422,0.2481,0.248,0.2502,0.2544,0.2561,0.2604,0.2653,0.2688,0.271,0.2763,0.2787,0.2801,0.2809,0.2811,0.2843,0.2911,0.2827,0.2827,0.2849,0.2998,0.2953,0.2959,0.292,0.2922,0.2924,0.2986,0,0.2429,0.2471,0.2497,0.2529,0.2558,0.2596,0.2635,0.2681,0.2718,0.277,0.2809,0.2849,0.2831,0.2852,0.2887,0.2904,0.2941,0.2894,0.2942,0.2944,0.2898,0.2971,0.2719,0.275,0.2996,0.2998,0.2999,0,0.2427,0.2462,0.2499,0.2556,0.2573,0.2589,0.2665,0.27,0.2786,0.2823,0.2885,0.2914,0.2976,0.2946,0.3018,0.299,0.3003,0.301,0.3013,0.2956,0.2918,0.2737,0.276,0.3016,0.3015,0.3014,0.3013,0,0.2393,0.2451,0.2482,0.2498,0.2569,0.2596,0.2633,0.2715,0.2758,0.2858,0.2902,0.2983,0.3018,0.3061,0.3084,0.3061,0.3154,0.3123,0.3096,0.3092,0.2878,0.2852,0.3183,0.3183,0.3183,0.3183,0.3183,0,0.2376,0.2394,0.2466,0.2474,0.2516,0.2576,0.2624,0.2683,0.2774,0.283,0.2918,0.2972,0.305,0.3111,0.3124,0.3147,0.3193,0.3119,0.3116,0.2891,0.2866,0.3092,0.308,0.3185,0.3185,0.3184,0.3184,0,0.2319,0.2367,0.24,0.2474,0.2493,0.252,0.2596,0.2637,0.2732,0.281,0.2848,0.2979,0.3057,0.3125,0.3198,0.3186,0.3218,0.3214,0.2939,0.2903,0.3114,0.3105,0.3191,0.319,0.3189,0.3189,0.3188,0,0.2294,0.2309,0.2373,0.2394,0.2419,0.2468,0.2501,0.2598,0.2643,0.2801,0.2832,0.2959,0.3021,0.3123,0.313,0.3164,0.3217,0.295,0.2863,0.3132,0.3121,0.3113,0.3105,0.2596,0.2591,0.2587,0.2583,0,0.2255,0.2275,0.2304,0.2343,0.2371,0.2401,0.2454,0.2481,0.2604,0.2671,0.2768,0.2838,0.2947,0.2878,0.2945,0.2925,0.2926,0.2865,0.3227,0.2644,0.258,0.2566,0.2576,0.2545,0.2549,0.2551,0.2554,0.2555,0.2224,0.2234,0.2274,0.2294,0.2321,0.2327,0.2318,0.2383,0.2431,0.2493,0.2618,0.2632,0.2677,0.2651,0.2586,0.2551,0.2755,0.2627,0.2637,0.2652,0.2582,0.2522,0.2461,0.2465,0.2467,0.247,0.2472,0,0.2211,0.222,0.223,0.224,0.2222,0.2264,0.2281,0.2244,0.225,0.2323,0.2365,0.2196,0.2166,0.2215,0.211,0.2135,0.2072,0.2039,0.1926,0.1968,0.2005,0.1897,0.1597,0.1594,0.1591,0.1588,0,0,0.2214,0.2208,0.2194,0.2141,0.2138,0.2078,0.2067,0.2021,0.2032,0.1967,0.1947,0.2075,0.2172,0.1855,0.1821,0.1692,0.1807,0.1621,0.2331,0.2241,0.2274,0.2363,0.2249,0,0,0,0,0]},{"header":{"parameterUnit":"m.s-1","parameterCategory":2,"la1":30.2991,"la2":30.254,"lo1":-89.0895,"lo2":-89.0444,"dy":0.0017,"dx":0.0017,"nx":28,"ny":28,"refTime":"2024-08-28T09:00:00:Z","depth":"2","parameterNumber":3,"parameterNumberName":"V-component_of_CURRENTS"},"data":[0,0,0,0,0,0,0,0,0,0,0,0,0,0,0,0,0,0,0,0,0,0,0,0,0,0,0,0,0,0,0,0,0,0,0,0,0,0,0,0,0,0,0,0,0,0,0,0,0,0,0,0,0,0,0,0,0,0,0.0057,0.0056,0,0.0004,0.0004,0.0003,-0.0035,-0.0035,-0.0035,-0.0035,-0.0115,-0.0117,-0.0119,0,0,0,0,0,0,0,0,0,0,0,0,0,0.0078,0.0078,0.0057,0.0056,0.0056,0.0005,0.0004,0.0003,-0.0035,-0.0035,-0.0035,-0.0035,-0.0115,-0.0117,-0.0119,0,0,0,0,0,0,0,0,0,0,0,0,0,0.005,0.0078,0.0057,0.0032,0.003,0.0005,0.0004,0.0003,-0.0035,-0.0035,-0.0035,-0.0035,-0.0114,-0.0117,-0.012,-0.0134,0,0,-0.0129,-0.013,0,0,0,0,0,0,0,0,0.0052,0.0049,0.0036,0.0034,0.0031,-0.0007,-0.0018,-0.0044,-0.0035,-0.0012,-0.0035,-0.0036,-0.008,-0.0086,-0.0098,-0.0138,-0.0141,-0.0129,-0.0131,-0.0132,-0.0133,0,0,0,0,0,0,0,0.0054,0.0051,0.0034,0.0036,0.0033,0.0008,0.0004,-0.0023,-0.0047,-0.0014,-0.0017,-0.0019,-0.0082,-0.0095,-0.01,-0.0143,-0.0129,-0.0132,-0.0134,-0.0135,-0.0191,-0.0191,0,0,0,0,0,0,0.0067,0.0053,0.0036,0.0033,0.0043,0.0009,0.0004,0.0004,-0.0046,-0.0053,-0.0019,-0.0021,-0.009,-0.0096,-0.0103,-0.0106,-0.0132,-0.0135,-0.0137,-0.0191,-0.0191,-0.019,0,0,0,0,0,0,0.0068,0.0066,0.0038,0.0043,0.0038,0.0009,0.0009,0.0003,-0.0006,-0.0049,-0.0057,-0.0021,-0.009,-0.0099,-0.0121,-0.011,-0.0137,-0.0139,-0.0192,-0.0191,-0.0191,-0.0124,0,0,0,0,0,0,0.0069,0.0067,0.0068,0.0044,0.0038,0.0032,0.0009,0.0002,-0.0007,-0.0009,-0.0053,-0.0061,-0.0091,-0.0116,-0.0124,-0.0115,-0.0142,-0.0192,-0.0191,-0.0191,-0.0126,-0.0121,-0.0117,0,0,0,0,0,0.007,0.0079,0.0069,0.0066,0.0042,0.0032,0.0027,0.0004,-0.0006,-0.0006,-0.0035,-0.006,-0.0118,-0.0118,-0.0128,-0.0119,-0.0192,-0.0192,-0.0191,-0.0129,-0.0122,-0.0117,0,0,0,0,0,0,0.0091,0.0075,0.0064,0.0067,0.0054,0.0027,0.0027,0.001,-0.0013,-0.0014,-0.0057,-0.0067,-0.0083,-0.0111,-0.011,-0.0134,-0.0159,-0.016,-0.0108,-0.0103,-0.0098,-0.0077,-0.0144,0,0,0,0,0,0.0097,0.0098,0.0079,0.0082,0.0079,0.0054,0.0046,0.0033,0.0011,0.0,-0.003,-0.0062,-0.0088,-0.0102,-0.013,-0.0143,-0.0168,-0.0144,-0.0139,-0.0135,-0.0125,-0.0155,-0.0151,-0.0188,-0.0188,-0.0188,0,0,0.0107,0.0099,0.0099,0.0087,0.0075,0.0078,0.0049,0.0047,0.0048,-0.0005,-0.0012,-0.0046,-0.0088,-0.0102,-0.0111,-0.0123,-0.0137,-0.0134,-0.0129,-0.0122,-0.0154,-0.015,-0.0147,-0.0188,-0.0188,-0.0188,0,0,0.0135,0.0122,0.0135,0.0126,0.0116,0.01,0.0104,0.0082,0.0072,0.0058,0.0023,-0.0001,-0.0043,-0.0067,-0.0086,-0.0071,-0.011,-0.0082,-0.0041,-0.007,-0.0067,-0.0065,-0.0089,-0.009,-0.008,-0.0079,-0.0079,0,0.0148,0.0158,0.0137,0.0147,0.0147,0.0116,0.0132,0.0117,0.009,0.0088,0.0066,0.0013,-0.0025,-0.0038,-0.0036,-0.0059,-0.0081,-0.0059,-0.0063,-0.0061,-0.006,-0.0085,-0.0087,-0.0076,-0.0077,-0.0077,-0.0077,0,0.0184,0.0189,0.0199,0.02,0.0198,0.0206,0.0188,0.0185,0.0167,0.0149,0.0133,0.008,0.0051,0.0032,0.0,-0.0006,-0.0027,-0.0052,-0.0074,-0.0052,-0.0081,-0.0083,-0.0071,-0.0073,-0.0074,-0.0074,0,0,0.022,0.0224,0.0226,0.0239,0.0227,0.0235,0.0241,0.024,0.0254,0.0215,0.0227,0.017,0.0142,0.0119,0.0076,0.0047,0.003,0.0006,0.0003,-0.0011,-0.003,-0.0043,-0.0048,0.0003,0.0003,0.0003,-0.0052,0,0.0255,0.0289,0.0277,0.031,0.0328,0.0306,0.0319,0.0314,0.0297,0.03,0.0249,0.024,0.0175,0.0168,0.0127,0.0058,0.0026,0.0048,-0.0056,-0.0058,-0.0067,-0.005,-0.004,-0.0089,-0.0055,-0.0056,-0.0056,0,0.0294,0.0312,0.0353,0.0375,0.0382,0.0397,0.0418,0.0426,0.0415,0.0404,0.0378,0.0338,0.0296,0.0239,0.0131,0.0148,0.0067,0.0007,0.0003,-0.0033,-0.0076,-0.0108,-0.0095,-0.0061,-0.006,-0.006,-0.006,0,0.0339,0.0365,0.0404,0.041,0.0429,0.045,0.0461,0.0462,0.0487,0.0478,0.0495,0.0424,0.0409,0.0296,0.0165,0.0148,0.0048,0.0006,-0.0082,-0.0084,-0.0107,-0.0111,-0.0069,-0.0069,-0.0068,-0.0068,-0.0068,0,0.0379,0.0409,0.0432,0.0453,0.051,0.0506,0.0562,0.0562,0.0583,0.0633,0.0559,0.058,0.0423,0.0345,0.0204,0.0061,0.0073,-0.0067,-0.0097,-0.0084,-0.0085,-0.0087,-0.0089,-0.007,-0.007,-0.0069,-0.0069,0,0.0418,0.0431,0.0481,0.0515,0.0534,0.0578,0.0635,0.0676,0.0686,0.0751,0.076,0.0704,0.0604,0.0438,0.0264,0.0129,-0.0018,-0.0073,-0.0043,-0.0069,-0.0143,-0.014,-0.0179,-0.018,-0.018,-0.0181,-0.0182,0,0.0442,0.0472,0.0529,0.0574,0.0593,0.0655,0.0705,0.0729,0.0783,0.0833,0.0878,0.081,0.0771,0.0509,0.0264,0.0025,-0.0009,-0.0122,-0.0158,-0.0127,-0.0153,-0.0149,-0.0145,-0.0165,-0.0166,-0.0166,-0.0166,0,0.0489,0.0509,0.0548,0.0634,0.0698,0.077,0.0844,0.0902,0.0953,0.1006,0.1062,0.1037,0.0806,0.0565,0.0242,0.0077,-0.0086,-0.0135,-0.0107,-0.0135,-0.0118,-0.0142,-0.0138,-0.0169,-0.0169,-0.0168,-0.0168,-0.0168,0.0526,0.0564,0.0622,0.0699,0.078,0.0879,0.0942,0.103,0.1125,0.1191,0.1176,0.1128,0.0873,0.0447,0.018,-0.01,-0.0092,-0.0207,-0.0205,-0.0203,-0.0187,-0.0172,-0.023,-0.023,-0.023,-0.023,-0.023,0,0.0578,0.0618,0.0686,0.0779,0.0865,0.0905,0.1033,0.108,0.1196,0.1249,0.1268,0.1004,0.0756,0.0469,0.0055,-0.0191,-0.0213,-0.0272,-0.0248,-0.0244,-0.024,-0.0226,-0.028,-0.0281,-0.0281,-0.0282,0,0,0.0615,0.0675,0.0695,0.0828,0.0904,0.1012,0.1087,0.1155,0.1211,0.1223,0.1198,0.1138,0.0826,0.0512,0.0182,-0.0046,-0.0091,-0.0097,-0.0032,0.0038,0.0045,-0.0181,-0.015,0,0,0,0,0]}],[{"header":{"parameterUnit":"m.s-1","parameterCategory":2,"la1":30.2991,"la2":30.254,"lo1":-89.0895,"lo2":-89.0444,"dy":0.0017,"dx":0.0017,"nx":28,"ny":28,"refTime":"2024-08-28T09:00:00:Z","depth":"4","parameterNumber":2,"parameterNumberName":"U-component_of_CURRENTS"},"data":[0,0,0,0,0,0,0,0,0,0,0,0,0,0,0,0,0,0,0,0,0,0,0,0,0,0,0,0,0,0,0,0,0,0,0,0,0,0,0,0,0,0,0,0,0,0,0,0,0,0,0,0,0,0,0,0,0,0,0.1429,0.143,0,0.1485,0.1485,0.1486,0.1537,0.1537,0.1538,0.1539,0.1611,0.1613,0.1614,0,0,0,0,0,0,0,0,0,0,0,0,0,0.1385,0.1386,0.1429,0.143,0.143,0.1485,0.1485,0.1486,0.1537,0.1538,0.1538,0.1539,0.1611,0.1613,0.1614,0,0,0,0,0,0,0,0,0,0,0,0,0,0.1419,0.1386,0.1429,0.1462,0.1466,0.1484,0.1485,0.1486,0.1537,0.1538,0.1538,0.1539,0.161,0.1612,0.1614,0.161,0,0,0.1621,0.1622,0,0,0,0,0,0,0,0,0.1417,0.1421,0.1456,0.146,0.1464,0.1505,0.1497,0.1528,0.1536,0.151,0.1539,0.154,0.1576,0.1581,0.159,0.1613,0.1616,0.1621,0.1622,0.1623,0.1624,0,0,0,0,0,0,0,0.1415,0.1419,0.1451,0.1457,0.1462,0.148,0.1486,0.1503,0.1538,0.1512,0.1516,0.1521,0.1579,0.1588,0.1592,0.1617,0.1621,0.1623,0.1624,0.1625,0.173,0.1732,0,0,0,0,0,0,0.1405,0.1416,0.145,0.1453,0.1442,0.148,0.1487,0.1491,0.1538,0.1545,0.1521,0.1524,0.1584,0.159,0.1595,0.1671,0.1623,0.1625,0.1626,0.1729,0.1731,0.1732,0,0,0,0,0,0,0.1404,0.1408,0.1447,0.1436,0.1442,0.148,0.1484,0.1491,0.1534,0.1544,0.1552,0.156,0.1585,0.1592,0.1643,0.1672,0.1626,0.1628,0.1727,0.1729,0.1732,0.1773,0,0,0,0,0,0,0.1402,0.1407,0.1428,0.1435,0.1443,0.1482,0.1484,0.1492,0.1534,0.1539,0.1579,0.1585,0.1586,0.164,0.1645,0.1674,0.163,0.1725,0.1728,0.1731,0.177,0.1777,0.1783,0,0,0,0,0,0.1401,0.1414,0.1428,0.1434,0.1463,0.1483,0.1489,0.1518,0.1535,0.156,0.159,0.1586,0.1662,0.1643,0.1648,0.1678,0.1724,0.1727,0.1731,0.1767,0.1776,0.1783,0,0,0,0,0,0,0.1407,0.1421,0.1436,0.1455,0.1481,0.1492,0.1519,0.1537,0.158,0.1596,0.1606,0.1614,0.1669,0.167,0.1649,0.1718,0.1692,0.1697,0.1718,0.1726,0.1732,0.1725,0.1631,0,0,0,0,0,0.1417,0.1434,0.145,0.1471,0.1484,0.151,0.153,0.155,0.1576,0.1598,0.1627,0.1656,0.1681,0.1702,0.1724,0.1763,0.1772,0.1786,0.1793,0.1798,0.1797,0.185,0.1861,0.1744,0.1744,0.1744,0,0,0.1424,0.1437,0.1448,0.1476,0.1497,0.1518,0.1525,0.1562,0.1588,0.1598,0.1658,0.1683,0.1697,0.1741,0.1765,0.1751,0.1837,0.1802,0.1807,0.1803,0.1855,0.1866,0.1877,0.1746,0.1746,0.1745,0,0,0.1433,0.1461,0.1475,0.1498,0.1536,0.155,0.1568,0.1602,0.1631,0.1683,0.1696,0.174,0.1785,0.1798,0.1807,0.1862,0.1869,0.1878,0.1905,0.1957,0.1967,0.1975,0.2001,0.2011,0.188,0.188,0.1881,0,0.1446,0.1463,0.1485,0.1506,0.153,0.1566,0.159,0.1618,0.167,0.1698,0.1712,0.1794,0.1806,0.185,0.1868,0.1875,0.1903,0.1872,0.1965,0.1974,0.1982,0.2005,0.2017,0.1883,0.1883,0.1882,0.1882,0,0.1456,0.1485,0.1497,0.1533,0.1564,0.1594,0.1628,0.1673,0.1716,0.1746,0.182,0.1847,0.1898,0.1907,0.1902,0.1968,0.1969,0.1967,0.1943,0.1996,0.2018,0.2029,0.1886,0.1886,0.1885,0.1884,0,0,0.1439,0.1493,0.1502,0.1526,0.1585,0.1605,0.1657,0.1709,0.1753,0.1815,0.1876,0.1918,0.1955,0.1968,0.1981,0.2016,0.209,0.2021,0.2023,0.204,0.2204,0.2061,0.2059,0.2119,0.2122,0.2123,0.2194,0,0.1444,0.148,0.1514,0.1561,0.158,0.1637,0.1682,0.1739,0.1797,0.1867,0.1911,0.1978,0.1972,0.2014,0.2051,0.2089,0.2123,0.2071,0.2153,0.2155,0.2017,0.2068,0.2131,0.2202,0.2204,0.2206,0.2207,0,0.144,0.1465,0.1507,0.1573,0.159,0.1636,0.1723,0.1768,0.1862,0.1915,0.1994,0.2039,0.211,0.2097,0.2191,0.2169,0.2191,0.2205,0.2209,0.2066,0.2032,0.2139,0.2227,0.2226,0.2224,0.2223,0.2222,0,0.1403,0.1462,0.1498,0.1521,0.1597,0.1645,0.1702,0.1793,0.184,0.1962,0.2022,0.2113,0.2177,0.2231,0.2268,0.2253,0.2356,0.2338,0.2224,0.2214,0.2303,0.2293,0.2398,0.2398,0.2398,0.2398,0.2398,0,0.1381,0.1412,0.1491,0.151,0.1564,0.1635,0.1713,0.1783,0.1889,0.1947,0.2055,0.2113,0.222,0.2285,0.2305,0.2297,0.2397,0.2231,0.2226,0.2318,0.2309,0.231,0.2299,0.2401,0.24,0.2399,0.2399,0,0.1329,0.1381,0.1422,0.1514,0.1546,0.159,0.1709,0.1758,0.1878,0.1962,0.2009,0.2143,0.2229,0.2302,0.2387,0.2328,0.2342,0.2311,0.2402,0.2402,0.2153,0.2144,0.2188,0.2183,0.218,0.2176,0.2174,0,0.1303,0.132,0.1413,0.1438,0.1488,0.1564,0.1615,0.174,0.1793,0.1954,0.1984,0.2114,0.2187,0.2195,0.2282,0.2314,0.2284,0.2271,0.22,0.2142,0.2135,0.2131,0.2127,0.2168,0.2167,0.2166,0.2165,0,0.1249,0.1297,0.1332,0.1383,0.144,0.1484,0.1575,0.1595,0.1732,0.1858,0.1914,0.1959,0.2046,0.2106,0.2147,0.2162,0.2269,0.2232,0.2238,0.2171,0.2119,0.2114,0.2114,0.2152,0.2154,0.2155,0.2156,0,0.1215,0.1223,0.1277,0.131,0.1374,0.1388,0.1441,0.1503,0.1563,0.1738,0.1753,0.1894,0.202,0.2029,0.2069,0.2074,0.2038,0.1962,0.1982,0.1997,0.1902,0.1805,0.1741,0,0,0,0,0,0.1166,0.1164,0.1196,0.1223,0.1284,0.1315,0.1405,0.146,0.1588,0.1582,0.166,0.1731,0.1788,0.1867,0.1835,0.1987,0.2046,0.194,0.1969,0.2081,0.2096,0.2,0,0,0,0,0,0,0.1127,0.1157,0.1162,0.1146,0.1149,0.1196,0.1243,0.1324,0.133,0.1471,0.1518,0.1628,0.1719,0.1794,0.1805,0.1827,0.1808,0.2031,0.2026,0.2072,0.2086,0.2098,0.2005,0,0,0,0,0]},{"header":{"parameterUnit":"m.s-1","parameterCategory":2,"la1":30.2991,"la2":30.254,"lo1":-89.0895,"lo2":-89.0444,"dy":0.0017,"dx":0.0017,"nx":28,"ny":28,"refTime":"2024-08-28T09:00:00:Z","depth":"4","parameterNumber":3,"parameterNumberName":"V-component_of_CURRENTS"},"data":[0,0,0,0,0,0,0,0,0,0,0,0,0,0,0,0,0,0,0,0,0,0,0,0,0,0,0,0,0,0,0,0,0,0,0,0,0,0,0,0,0,0,0,0,0,0,0,0,0,0,0,0,0,0,0,0,0,0,-0.0025,-0.0025,0,-0.005,-0.0051,-0.0051,-0.0074,-0.0074,-0.0074,-0.0074,-0.0135,-0.0136,-0.0138,0,0,0,0,0,0,0,0,0,0,0,0,0,-0.0008,-0.0008,-0.0025,-0.0025,-0.0025,-0.005,-0.0051,-0.0051,-0.0074,-0.0074,-0.0074,-0.0074,-0.0134,-0.0136,-0.0138,0,0,0,0,0,0,0,0,0,0,0,0,0,-0.0023,-0.0008,-0.0025,-0.0039,-0.004,-0.005,-0.0051,-0.0051,-0.0074,-0.0074,-0.0074,-0.0075,-0.0134,-0.0136,-0.0138,-0.0147,0,0,-0.0145,-0.0146,0,0,0,0,0,0,0,0,-0.0022,-0.0024,-0.0036,-0.0038,-0.0039,-0.0058,-0.0067,-0.0084,-0.0074,-0.0062,-0.0074,-0.0075,-0.0111,-0.0115,-0.0121,-0.015,-0.0152,-0.0145,-0.0146,-0.0147,-0.0148,0,0,0,0,0,0,0,-0.0021,-0.0023,-0.0036,-0.0036,-0.0038,-0.0048,-0.005,-0.007,-0.0087,-0.0063,-0.0065,-0.0066,-0.0113,-0.0119,-0.0123,-0.0153,-0.0145,-0.0147,-0.0148,-0.0149,-0.0194,-0.0194,0,0,0,0,0,0,-0.0015,-0.0022,-0.0035,-0.0037,-0.003,-0.0048,-0.0051,-0.0053,-0.0086,-0.009,-0.0065,-0.0067,-0.0115,-0.012,-0.0125,-0.0132,-0.0147,-0.0149,-0.0151,-0.0195,-0.0194,-0.0194,0,0,0,0,0,0,-0.0015,-0.0016,-0.0034,-0.0029,-0.0032,-0.0047,-0.005,-0.0053,-0.0059,-0.0087,-0.0092,-0.0068,-0.0115,-0.0122,-0.014,-0.0135,-0.015,-0.0152,-0.0195,-0.0194,-0.0194,-0.015,0,0,0,0,0,0,-0.0014,-0.0016,-0.0014,-0.0029,-0.0032,-0.0036,-0.005,-0.0053,-0.0059,-0.006,-0.0091,-0.0096,-0.0116,-0.0136,-0.0142,-0.0138,-0.0154,-0.0195,-0.0195,-0.0194,-0.0151,-0.0148,-0.0145,0,0,0,0,0,-0.0013,-0.0009,-0.0014,-0.0015,-0.003,-0.0036,-0.0038,-0.0051,-0.0058,-0.0058,-0.0078,-0.0096,-0.0139,-0.0138,-0.0145,-0.0141,-0.0195,-0.0195,-0.0194,-0.0153,-0.0149,-0.0145,0,0,0,0,0,0,-0.0002,-0.0011,-0.0017,-0.0016,-0.0023,-0.0039,-0.0039,-0.0048,-0.0064,-0.0066,-0.0095,-0.0102,-0.0115,-0.0135,-0.0133,-0.0154,-0.017,-0.0171,-0.0136,-0.0132,-0.0129,-0.0116,-0.0156,0,0,0,0,0,0.0003,0.0004,-0.0008,-0.0007,-0.001,-0.0024,-0.0028,-0.0035,-0.005,-0.0057,-0.0078,-0.0101,-0.012,-0.0131,-0.0151,-0.0162,-0.0183,-0.0165,-0.0162,-0.0159,-0.0153,-0.018,-0.0179,-0.0194,-0.0194,-0.0194,0,0,0.0008,0.0003,0.0003,-0.0004,-0.0011,-0.0008,-0.0027,-0.0029,-0.0027,-0.0062,-0.0068,-0.0091,-0.012,-0.0132,-0.014,-0.0148,-0.0167,-0.0159,-0.0156,-0.0152,-0.018,-0.0178,-0.0177,-0.0193,-0.0193,-0.0193,0,0,0.0023,0.0015,0.0022,0.0019,0.0013,0.0005,0.0006,-0.0008,-0.0015,-0.0024,-0.0048,-0.0066,-0.0095,-0.0112,-0.0126,-0.0119,-0.0149,-0.0128,-0.0102,-0.0128,-0.0127,-0.0126,-0.0152,-0.0153,-0.0126,-0.0126,-0.0126,0,0.0031,0.0038,0.0023,0.0031,0.0033,0.0013,0.0024,0.0014,-0.0003,-0.0006,-0.002,-0.0056,-0.0084,-0.0094,-0.0095,-0.0111,-0.0132,-0.0112,-0.0123,-0.0123,-0.0123,-0.0149,-0.0152,-0.0124,-0.0124,-0.0125,-0.0125,0,0.0051,0.0058,0.0062,0.0066,0.0066,0.0072,0.0059,0.0057,0.0045,0.0033,0.002,-0.0015,-0.0035,-0.0049,-0.0072,-0.0083,-0.01,-0.0115,-0.013,-0.0119,-0.0147,-0.0151,-0.0121,-0.0122,-0.0122,-0.0123,0,0,0.0068,0.0075,0.0079,0.0091,0.0086,0.0092,0.0095,0.0094,0.0103,0.0077,0.0083,0.0043,0.0024,0.0008,-0.0022,-0.0049,-0.0073,-0.008,-0.0083,-0.01,-0.0132,-0.0132,-0.0137,-0.0092,-0.0092,-0.0092,-0.0152,0,0.0091,0.0114,0.0111,0.0139,0.015,0.014,0.0149,0.0145,0.0133,0.0132,0.0095,0.0087,0.0046,0.004,0.0007,-0.005,-0.008,-0.0056,-0.0144,-0.0147,-0.0145,-0.014,-0.0093,-0.0155,-0.0155,-0.0156,-0.0157,0,0.0115,0.0128,0.0157,0.0181,0.0186,0.02,0.0216,0.0225,0.0213,0.0203,0.0185,0.0155,0.0119,0.0081,-0.0008,0.0009,-0.0057,-0.0106,-0.0109,-0.0126,-0.0154,-0.0169,-0.0163,-0.0163,-0.0162,-0.0162,-0.0161,0,0.0139,0.0165,0.0192,0.0199,0.0218,0.0234,0.0248,0.0247,0.0264,0.0254,0.026,0.0208,0.019,0.0105,0.0002,-0.0005,-0.0101,-0.0123,-0.0185,-0.0187,-0.0188,-0.0188,-0.0188,-0.0188,-0.0188,-0.0188,-0.0188,0,0.0166,0.019,0.0208,0.0225,0.0266,0.0269,0.031,0.0314,0.0327,0.0352,0.0304,0.0305,0.0193,0.0125,0.0022,-0.0088,-0.0087,-0.0178,-0.02,-0.0169,-0.0166,-0.0191,-0.019,-0.019,-0.019,-0.0189,-0.0189,0,0.0185,0.0198,0.0233,0.0262,0.028,0.0309,0.0357,0.0383,0.0393,0.0424,0.0426,0.0376,0.0288,0.0171,0.0032,-0.0052,-0.0163,-0.0205,-0.0157,-0.0176,-0.0238,-0.0234,-0.0277,-0.0277,-0.0278,-0.0278,-0.0278,0,0.0196,0.0216,0.0262,0.0287,0.0304,0.035,0.0384,0.0414,0.0443,0.0465,0.048,0.0418,0.0364,0.0181,0.0045,-0.0139,-0.0173,-0.0232,-0.0242,-0.0228,-0.0246,-0.0242,-0.0238,-0.0279,-0.0279,-0.0279,-0.0279,0,0.021,0.0227,0.0252,0.0305,0.0348,0.0401,0.0451,0.0479,0.0516,0.0531,0.0527,0.0441,0.0342,0.019,0.0049,-0.0088,-0.0192,-0.0237,-0.0237,-0.0247,-0.0231,-0.0248,-0.0244,-0.0281,-0.028,-0.028,-0.028,0,0.0216,0.0231,0.0263,0.0312,0.037,0.0425,0.0457,0.0495,0.053,0.0559,0.0555,0.0458,0.0406,0.0216,0.0085,-0.0045,-0.0087,-0.0138,-0.0145,-0.0145,-0.0093,-0.0053,-0.0062,0,0,0,0,0,0.021,0.0223,0.0268,0.0318,0.0379,0.0414,0.0488,0.0516,0.0557,0.0564,0.0564,0.0477,0.0302,0.0228,0.0098,0.0051,-0.0128,-0.0108,-0.0195,-0.0288,-0.0287,-0.0249,0,0,0,0,0,0,0.02,0.0231,0.0254,0.0314,0.0351,0.0419,0.0466,0.05,0.0506,0.0534,0.0447,0.043,0.0257,0.0372,0.0089,0.0051,-0.0025,-0.0182,-0.0185,-0.0289,-0.0288,-0.0286,-0.0247,0,0,0,0,0]}]]